| time (UTC) | temp F | wind direction | speed MPH | gust MPH | rain 1hr in | rain 24hr in | rain mn in | humidity % | barometer mb |
| 20260903174201 | 80 | 285 | 1.0 | 3.0 | 0.00 | 0.00 | 0.00 | ||
| 20260903173656 | 80 | 269 | 0.0 | 8.0 | 0.00 | 0.00 | 0.00 | ||
| 20260903173151 | 79 | 210 | 6.0 | 8.0 | 0.00 | 0.00 | 0.00 | ||
| 20260903172647 | 79 | 263 | 2.0 | 6.0 | 0.00 | 0.00 | 0.00 | ||
| 20260903172137 | 79 | 183 | 3.0 | 6.0 | 0.00 | 0.00 | 0.00 | ||
| 20260903171632 | 78 | 248 | 4.0 | 7.0 | 0.00 | 0.00 | 0.00 | ||
| 20260903171127 | 77 | 208 | 5.0 | 7.0 | 0.00 | 0.00 | 0.00 | ||
| 20260903170623 | 77 | 191 | 4.0 | 6.0 | 0.00 | 0.00 | 0.00 | ||
| 20260903170118 | 78 | 163 | 4.0 | 8.0 | 0.00 | 0.00 | 0.00 | ||
| 20260903165613 | 78 | 188 | 7.0 | 7.0 | 0.00 | 0.00 | 0.00 | ||
| 20260903165105 | 77 | 211 | 6.0 | 8.0 | 0.00 | 0.00 | 0.00 | ||
| 20260903164600 | 76 | 271 | 4.0 | 10.0 | 0.00 | 0.00 | 0.00 | ||
| 20260903163549 | 77 | 208 | 2.0 | 6.0 | 0.00 | 0.00 | 0.00 | ||
| 20260903163045 | 78 | 243 | 4.0 | 7.0 | 0.00 | 0.00 | 0.00 | ||
| 20260903162539 | 78 | 281 | 3.0 | 7.0 | 0.00 | 0.00 | 0.00 | ||
| 20260903162030 | 78 | 259 | 6.0 | 8.0 | 0.00 | 0.00 | 0.00 | ||
| 20260903161525 | 77 | 242 | 7.0 | 9.0 | 0.00 | 0.00 | 0.00 | ||
| 20260903161020 | 78 | 278 | 7.0 | 11.0 | 0.00 | 0.00 | 0.00 | ||
| 20260903160515 | 77 | 229 | 8.0 | 9.0 | 0.00 | 0.00 | 0.00 | ||
| 20260903160010 | 75 | 217 | 6.0 | 8.0 | 0.00 | 0.00 | 0.00 | ||
| 20260903155506 | 76 | 201 | 3.0 | 6.0 | 0.00 | 0.00 | 0.00 | ||
| 20260903154957 | 76 | 117 | 3.0 | 5.0 | 0.00 | 0.00 | 0.00 | ||
| 20260903154452 | 75 | 66 | 0.0 | 4.0 | 0.00 | 0.00 | 0.00 | ||
| 20260903153946 | 73 | 124 | 2.0 | 7.0 | 0.00 | 0.00 | 0.00 | ||
| 20260903153441 | 72 | 236 | 5.0 | 7.0 | 0.00 | 0.00 | 0.00 | ||
| 20260903152936 | 71 | 264 | 6.0 | 5.0 | 0.00 | 0.00 | 0.00 | ||
| 20260903152432 | 73 | 39 | 0.0 | 6.0 | 0.00 | 0.00 | 0.00 | ||
| 20260903151923 | 73 | 24 | 3.0 | 4.0 | 0.00 | 0.00 | 0.00 | ||
| 20260903151418 | 73 | 135 | 2.0 | 9.0 | 0.00 | 0.00 | 0.00 | ||
| 20260903150913 | 71 | 238 | 0.0 | 4.0 | 0.00 | 0.00 | 0.00 | ||
| 20260903145903 | 72 | 307 | 2.0 | 16.0 | 0.00 | 0.00 | 0.00 | ||
| 20260903145358 | 73 | 28 | 4.0 | 9.0 | 0.00 | 0.00 | 0.00 | ||
| 20260903144850 | 72 | 309 | 1.0 | 8.0 | 0.00 | 0.00 | 0.00 | ||
| 20260903144345 | 73 | 194 | 4.0 | 8.0 | 0.00 | 0.00 | 0.00 | ||
| 20260903143841 | 72 | 228 | 5.0 | 7.0 | 0.00 | 0.00 | 0.00 | ||
| 20260903143336 | 73 | 200 | 6.0 | 5.0 | 0.00 | 0.00 | 0.00 | ||
| 20260903142831 | 73 | 121 | 3.0 | 5.0 | 0.00 | 0.00 | 0.00 | ||
| 20260903142326 | 73 | 259 | 0.0 | 9.0 | 0.00 | 0.00 | 0.00 | ||
| 20260903141313 | 73 | 273 | 10.0 | 9.0 | 0.00 | 0.00 | 0.00 | ||
| 20260903140809 | 73 | 311 | 3.0 | 9.0 | 0.00 | 0.00 | 0.00 | ||
| 20260903140304 | 74 | 204 | 6.0 | 7.0 | 0.00 | 0.00 | 0.00 | ||
| 20260903135759 | 73 | 150 | 2.0 | 10.0 | 0.00 | 0.00 | 0.00 | ||
| 20260903134746 | 73 | 229 | 8.0 | 8.0 | 0.00 | 0.00 | 0.00 | ||
| 20260903134242 | 75 | 278 | 4.0 | 8.0 | 0.00 | 0.00 | 0.00 | ||
| 20260903133737 | 74 | 267 | 3.0 | 7.0 | 0.00 | 0.00 | 0.00 | ||
| 20260903133232 | 74 | 253 | 3.0 | 6.0 | 0.00 | 0.00 | 0.00 | ||
| 20260903132726 | 73 | 205 | 5.0 | 5.0 | 0.00 | 0.00 | 0.00 | ||
| 20260903131713 | 72 | 277 | 7.0 | 0.0 | 0.00 | 0.00 | 0.00 | ||
| 20260903131207 | 73 | 194 | 0.0 | 0.0 | 0.00 | 0.00 | 0.00 | ||
| 20260903130703 | 71 | 194 | 0.0 | 5.0 | 0.00 | 0.00 | 0.00 | ||
| 20260903130158 | 73 | 194 | 0.0 | 11.0 | 0.00 | 0.00 | 0.00 | ||
| 20260903125653 | 72 | 240 | 9.0 | 12.0 | 0.00 | 0.00 | 0.00 | ||
| 20260903125148 | 71 | 51 | 0.0 | 7.0 | 0.00 | 0.00 | 0.00 | ||
| 20260903124640 | 71 | 155 | 3.0 | 0.0 | 0.00 | 0.00 | 0.00 | ||
| 20260903124135 | 72 | 259 | 0.0 | 0.0 | 0.00 | 0.00 | 0.00 | ||
| 20260903123630 | 72 | 259 | 0.0 | 0.0 | 0.00 | 0.00 | 0.00 | ||
| 20260903123125 | 71 | 259 | 0.0 | 0.0 | 0.00 | 0.00 | 0.00 | ||
| 20260903122115 | 72 | 259 | 0.0 | 0.0 | 0.00 | 0.00 | 0.00 | ||
| 20260903121606 | 71 | 259 | 0.0 | 3.0 | 0.00 | 0.00 | 0.00 | ||
| 20260903120556 | 71 | 34 | 0.0 | 0.0 | 0.00 | 0.00 | 0.00 | ||
| 20260903120051 | 73 | 34 | 0.0 | 0.0 | 0.00 | 0.00 | 0.00 | ||
| 20260903115546 | 72 | 34 | 0.0 | 0.0 | 0.00 | 0.00 | 0.00 | ||
| 20260903115041 | 72 | 34 | 0.0 | 0.0 | 0.00 | 0.00 | 0.00 | ||
| 20260903114533 | 72 | 34 | 0.0 | 0.0 | 0.00 | 0.00 | 0.00 | ||
| 20260903114029 | 72 | 34 | 0.0 | 0.0 | 0.00 | 0.00 | 0.00 | ||
| 20260903113019 | 71 | 34 | 0.0 | 1.0 | 0.00 | 0.00 | 0.00 | ||
| 20260903112514 | 72 | 34 | 0.0 | 1.0 | 0.00 | 0.00 | 0.00 | ||
| 20260903111501 | 71 | 15 | 0.0 | 2.0 | 0.00 | 0.00 | 0.00 | ||
| 20260903110956 | 71 | 20 | 0.0 | 3.0 | 0.00 | 0.00 | 0.00 | ||
| 20260903110451 | 70 | 45 | 0.0 | 0.0 | 0.00 | 0.00 | 0.00 | ||
| 20260903105946 | 71 | 10 | 0.0 | 0.0 | 0.00 | 0.00 | 0.00 | ||
| 20260903105442 | 70 | 10 | 0.0 | 1.0 | 0.00 | 0.00 | 0.00 | ||
| 20260903104937 | 71 | 10 | 0.0 | 1.0 | 0.00 | 0.00 | 0.00 | ||
| 20260903104428 | 69 | 11 | 0.0 | 4.0 | 0.00 | 0.00 | 0.00 | ||
| 20260903103923 | 71 | 10 | 0.0 | 3.0 | 0.00 | 0.00 | 0.00 | ||
| 20260903103418 | 71 | 359 | 0.0 | 5.0 | 0.00 | 0.00 | 0.00 | ||
| 20260903102913 | 70 | 6 | 0.0 | 6.0 | 0.00 | 0.00 | 0.00 | ||
| 20260903102408 | 69 | 13 | 0.0 | 4.0 | 0.00 | 0.00 | 0.00 | ||
| 20260903101355 | 71 | 30 | 0.0 | 0.0 | 0.00 | 0.00 | 0.00 | ||
| 20260903100850 | 71 | 359 | 0.0 | 3.0 | 0.00 | 0.00 | 0.00 | ||
| 20260903100345 | 71 | 359 | 2.0 | 0.0 | 0.00 | 0.00 | 0.00 | ||
| 20260903095840 | 70 | 15 | 0.0 | 0.0 | 0.00 | 0.00 | 0.00 | ||
| 20260903095335 | 70 | 15 | 0.0 | 0.0 | 0.00 | 0.00 | 0.00 | ||
| 20260903094830 | 71 | 15 | 0.0 | 2.0 | 0.00 | 0.00 | 0.00 | ||
| 20260903094322 | 70 | 32 | 0.0 | 0.0 | 0.00 | 0.00 | 0.00 | ||
| 20260903093817 | 71 | 14 | 0.0 | 3.0 | 0.00 | 0.00 | 0.00 | ||
| 20260903093313 | 70 | 51 | 0.0 | 0.0 | 0.00 | 0.00 | 0.00 | ||
| 20260903092808 | 71 | 51 | 0.0 | 1.0 | 0.00 | 0.00 | 0.00 | ||
| 20260903092306 | 71 | 51 | 0.0 | 1.0 | 0.00 | 0.00 | 0.00 | ||
| 20260903091758 | 70 | 11 | 0.0 | 0.0 | 0.00 | 0.00 | 0.00 | ||
| 20260903091250 | 70 | 11 | 0.0 | 0.0 | 0.00 | 0.00 | 0.00 | ||
| 20260903090745 | 69 | 11 | 0.0 | 0.0 | 0.00 | 0.00 | 0.00 | ||
| 20260903090240 | 69 | 11 | 0.0 | 0.0 | 0.00 | 0.00 | 0.00 | ||
| 20260903085735 | 70 | 11 | 0.0 | 0.0 | 0.00 | 0.00 | 0.00 | ||
| 20260903085230 | 70 | 11 | 0.0 | 0.0 | 0.00 | 0.00 | 0.00 | ||
| 20260903084724 | 69 | 11 | 0.0 | 0.0 | 0.00 | 0.00 | 0.00 | ||
| 20260903084216 | 69 | 11 | 0.0 | 0.0 | 0.00 | 0.00 | 0.00 | ||
| 20260903083712 | 69 | 11 | 0.0 | 0.0 | 0.00 | 0.00 | 0.00 | ||
| 20260903083207 | 70 | 11 | 0.0 | 0.0 | 0.00 | 0.00 | 0.00 | ||
| 20260903082702 | 69 | 11 | 0.0 | 0.0 | 0.00 | 0.00 | 0.00 | ||
| 20260903082157 | 71 | 11 | 0.0 | 0.0 | 0.00 | 0.00 | 0.00 | ||
| 20260903081652 | 70 | 11 | 0.0 | 0.0 | 0.00 | 0.00 | 0.00 | ||
| 20260903081144 | 71 | 11 | 0.0 | 0.0 | 0.00 | 0.00 | 0.00 | ||
| 20260903080639 | 70 | 11 | 0.0 | 0.0 | 0.00 | 0.00 | 0.00 | ||
| 20260903080134 | 69 | 11 | 0.0 | 0.0 | 0.00 | 0.00 | 0.00 | ||
| 20260903075124 | 70 | 11 | 0.0 | 0.0 | 0.00 | 0.00 | 0.00 | ||
| 20260903074619 | 68 | 11 | 0.0 | 0.0 | 0.00 | 0.00 | 0.00 | ||
| 20260903074111 | 68 | 11 | 0.0 | 0.0 | 0.00 | 0.00 | 0.00 | ||
| 20260903073606 | 69 | 11 | 0.0 | 0.0 | 0.00 | 0.00 | 0.00 | ||
| 20260903073101 | 69 | 11 | 0.0 | 0.0 | 0.00 | 0.00 | 0.00 | ||
| 20260903072557 | 68 | 11 | 0.0 | 0.0 | 0.00 | 0.00 | 0.00 | ||
| 20260903072051 | 70 | 11 | 0.0 | 0.0 | 0.00 | 0.00 | 0.00 | ||
| 20260903071546 | 70 | 11 | 0.0 | 0.0 | 0.00 | 0.00 | 0.00 | ||
| 20260903071038 | 68 | 11 | 0.0 | 0.0 | 0.00 | 0.00 | 0.00 | ||
| 20260903070533 | 69 | 11 | 0.0 | 0.0 | 0.00 | 0.00 | 0.00 | ||
| 20260903070028 | 70 | 11 | 0.0 | 0.0 | 0.00 | 0.00 | 0.00 | ||
| 20260903065522 | 69 | 11 | 0.0 | 0.0 | 0.00 | 0.00 | 0.00 | ||
| 20260903065017 | 68 | 11 | 0.0 | 0.0 | 0.00 | 0.00 | 0.00 | ||
| 20260903064512 | 70 | 11 | 0.0 | 0.0 | 0.00 | 0.00 | 0.00 | ||
| 20260903064003 | 68 | 11 | 0.0 | 0.0 | 0.00 | 0.00 | 0.00 | ||
| 20260903063456 | 68 | 11 | 0.0 | 0.0 | 0.00 | 0.00 | 0.00 | ||
| 20260903062951 | 69 | 11 | 0.0 | 0.0 | 0.00 | 0.00 | 0.00 | ||
| 20260903062446 | 68 | 11 | 0.0 | 0.0 | 0.00 | 0.00 | 0.00 | ||
| 20260903061940 | 68 | 11 | 0.0 | 0.0 | 0.00 | 0.00 | 0.00 | ||
| 20260903061435 | 69 | 11 | 0.0 | 0.0 | 0.00 | 0.00 | 0.00 | ||
| 20260903060927 | 68 | 11 | 0.0 | 0.0 | 0.00 | 0.00 | 0.00 | ||
| 20260903060422 | 69 | 11 | 0.0 | 0.0 | 0.00 | 0.00 | 0.00 | ||
| 20260903055917 | 68 | 11 | 0.0 | 0.0 | 0.00 | 0.00 | 0.00 | ||
| 20260903055412 | 68 | 11 | 0.0 | 0.0 | 0.00 | 0.00 | 0.00 | ||
| 20260903054908 | 67 | 11 | 0.0 | 0.0 | 0.00 | 0.00 | 0.00 | ||
| 20260903054403 | 68 | 11 | 0.0 | 0.0 | 0.00 | 0.00 | 0.00 | ||
| 20260903053854 | 69 | 11 | 0.0 | 0.0 | 0.00 | 0.00 | 0.00 | ||
| 20260903053349 | 68 | 11 | 0.0 | 0.0 | 0.00 | 0.00 | 0.00 | ||
| 20260903052844 | 69 | 11 | 0.0 | 0.0 | 0.00 | 0.00 | 0.00 | ||
| 20260903052339 | 69 | 11 | 0.0 | 0.0 | 0.00 | 0.00 | 0.00 | ||
| 20260903051834 | 69 | 11 | 0.0 | 0.0 | 0.00 | 0.00 | 0.00 | ||
| 20260903051329 | 70 | 11 | 0.0 | 0.0 | 0.00 | 0.00 | 0.00 | ||
| 20260903050820 | 69 | 11 | 0.0 | 0.0 | 0.00 | 0.00 | 0.00 | ||
| 20260903050315 | 69 | 11 | 0.0 | 0.0 | 0.00 | 0.00 | 0.00 | ||
| 20260903045810 | 69 | 11 | 0.0 | 0.0 | 0.00 | 0.00 | 0.00 | ||
| 20260903045306 | 69 | 11 | 0.0 | 0.0 | 0.00 | 0.00 | 0.00 | ||
| 20260903044801 | 69 | 11 | 0.0 | 0.0 | 0.00 | 0.00 | 0.00 | ||
| 20260903044256 | 70 | 11 | 0.0 | 0.0 | 0.00 | 0.00 | 0.00 | ||
| 20260903043747 | 69 | 11 | 0.0 | 0.0 | 0.00 | 0.00 | 0.00 | ||
| 20260903042737 | 70 | 11 | 0.0 | 0.0 | 0.00 | 0.00 | 0.00 | ||
| 20260903042232 | 70 | 11 | 0.0 | 0.0 | 0.00 | 0.00 | 0.00 | ||
| 20260903041221 | 70 | 11 | 0.0 | 0.0 | 0.00 | 0.00 | 0.00 | ||
| 20260903040713 | 70 | 11 | 0.0 | 0.0 | 0.00 | 0.00 | 0.00 | ||
| 20260903040209 | 69 | 11 | 0.0 | 0.0 | 0.00 | 0.00 | 0.00 | ||
| 20260903035704 | 71 | 11 | 0.0 | 0.0 | 0.00 | 0.00 | 0.00 | ||
| 20260903035159 | 71 | 11 | 0.0 | 0.0 | 0.00 | 0.00 | 0.00 | ||
| 20260903034653 | 71 | 11 | 0.0 | 0.0 | 0.00 | 0.00 | 0.00 | ||
| 20260903034147 | 71 | 11 | 0.0 | 0.0 | 0.00 | 0.00 | 0.00 | ||
| 20260903033638 | 70 | 11 | 0.0 | 0.0 | 0.00 | 0.00 | 0.00 | ||
| 20260903033133 | 70 | 11 | 0.0 | 0.0 | 0.00 | 0.00 | 0.00 | ||
| 20260903032628 | 70 | 11 | 0.0 | 0.0 | 0.00 | 0.00 | 0.00 | ||
| 20260903032123 | 71 | 11 | 0.0 | 0.0 | 0.00 | 0.00 | 0.00 | ||
| 20260903031619 | 69 | 11 | 0.0 | 0.0 | 0.00 | 0.00 | 0.00 | ||
| 20260903031114 | 70 | 11 | 0.0 | 0.0 | 0.00 | 0.00 | 0.00 | ||
| 20260903030605 | 70 | 11 | 0.0 | 0.0 | 0.00 | 0.00 | 0.00 | ||
| 20260903030100 | 69 | 11 | 0.0 | 0.0 | 0.00 | 0.00 | 0.00 | ||
| 20260903025555 | 71 | 11 | 0.0 | 0.0 | 0.00 | 0.00 | 0.00 | ||
| 20260903025049 | 71 | 11 | 0.0 | 0.0 | 0.00 | 0.00 | 0.00 | ||
| 20260903024544 | 70 | 11 | 0.0 | 0.0 | 0.00 | 0.00 | 0.00 | ||
| 20260903024039 | 70 | 11 | 0.0 | 0.0 | 0.00 | 0.00 | 0.00 | ||
| 20260903023532 | 71 | 11 | 0.0 | 0.0 | 0.00 | 0.00 | 0.00 | ||
| 20260903023027 | 70 | 11 | 0.0 | 0.0 | 0.00 | 0.00 | 0.00 | ||
| 20260903022522 | 71 | 11 | 0.0 | 0.0 | 0.00 | 0.00 | 0.00 | ||
| 20260903022017 | 70 | 11 | 0.0 | 0.0 | 0.00 | 0.00 | 0.00 | ||
| 20260903021007 | 71 | 11 | 0.0 | 0.0 | 0.00 | 0.00 | 0.00 | ||
| 20260903020500 | 71 | 11 | 0.0 | 1.0 | 0.00 | 0.00 | 0.00 | ||
| 20260903015955 | 70 | 11 | 0.0 | 0.0 | 0.00 | 0.00 | 0.00 | ||
| 20260903015450 | 70 | 34 | 0.0 | 0.0 | 0.00 | 0.00 | 0.00 | ||
| 20260903014945 | 70 | 34 | 0.0 | 0.0 | 0.00 | 0.00 | 0.00 | ||
| 20260903014440 | 70 | 34 | 0.0 | 1.0 | 0.00 | 0.00 | 0.00 | ||
| 20260903013935 | 70 | 34 | 0.0 | 3.0 | 0.00 | 0.00 | 0.00 | ||
| 20260903013427 | 70 | 68 | 0.0 | 1.0 | 0.00 | 0.00 | 0.00 | ||
| 20260903012922 | 70 | 68 | 0.0 | 0.0 | 0.00 | 0.00 | 0.00 | ||
| 20260903012417 | 71 | 68 | 0.0 | 0.0 | 0.00 | 0.00 | 0.00 | ||
| 20260903011912 | 71 | 68 | 0.0 | 0.0 | 0.00 | 0.00 | 0.00 | ||
| 20260903011407 | 70 | 68 | 0.0 | 0.0 | 0.00 | 0.00 | 0.00 | ||
| 20260903010901 | 71 | 68 | 0.0 | 3.0 | 0.00 | 0.00 | 0.00 | ||
| 20260903010353 | 70 | 68 | 0.0 | 2.0 | 0.00 | 0.00 | 0.00 | ||
| 20260903005849 | 70 | 122 | 0.0 | 0.0 | 0.00 | 0.00 | 0.00 | ||
| 20260903005344 | 70 | 122 | 0.0 | 0.0 | 0.00 | 0.00 | 0.00 | ||
| 20260903004839 | 70 | 122 | 0.0 | 0.0 | 0.00 | 0.00 | 0.00 | ||
| 20260903004334 | 72 | 122 | 0.0 | 0.0 | 0.00 | 0.00 | 0.00 | ||
| 20260903003829 | 71 | 122 | 0.0 | 0.0 | 0.00 | 0.00 | 0.00 | ||
| 20260903003321 | 71 | 122 | 0.0 | 0.0 | 0.00 | 0.00 | 0.00 | ||
| 20260903002816 | 72 | 122 | 0.0 | 0.0 | 0.00 | 0.00 | 0.00 | ||
| 20260903002312 | 72 | 122 | 0.0 | 0.0 | 0.00 | 0.00 | 0.00 | ||
| 20260903001807 | 72 | 122 | 0.0 | 0.0 | 0.00 | 0.00 | 0.00 | ||
| 20260903001302 | 72 | 122 | 0.0 | 0.0 | 0.00 | 0.00 | 0.00 | ||
| 20260903000757 | 73 | 122 | 0.0 | 0.0 | 0.00 | 0.00 | 0.00 | ||
| 20260903000249 | 73 | 122 | 0.0 | 0.0 | 0.00 | 0.00 | 0.00 | ||
| 20260902235745 | 73 | 122 | 0.0 | 0.0 | 0.00 | 0.00 | 0.00 | ||
| 20260902235239 | 74 | 122 | 0.0 | 0.0 | 0.00 | 0.00 | 0.00 | ||
| 20260902234733 | 74 | 122 | 0.0 | 0.0 | 0.00 | 0.00 | 0.00 | ||
| 20260902234228 | 75 | 122 | 0.0 | 0.0 | 0.00 | 0.00 | 0.00 | ||
| 20260902233724 | 75 | 122 | 0.0 | 0.0 | 0.00 | 0.00 | 0.00 | ||
| 20260902233216 | 76 | 122 | 0.0 | 4.0 | 0.00 | 0.00 | 0.00 | ||
| 20260902232710 | 76 | 150 | 3.0 | 4.0 | 0.00 | 0.00 | 0.00 | ||
| 20260902232205 | 76 | 170 | 2.0 | 3.0 | 0.00 | 0.00 | 0.00 | ||
| 20260902231701 | 76 | 179 | 2.0 | 3.0 | 0.00 | 0.00 | 0.00 | ||
| 20260902231156 | 77 | 120 | 0.0 | 5.0 | 0.00 | 0.00 | 0.00 | ||
| 20260902230651 | 78 | 155 | 2.0 | 6.0 | 0.00 | 0.00 | 0.00 | ||
| 20260902230144 | 79 | 184 | 2.0 | 5.0 | 0.00 | 0.00 | 0.00 | ||
| 20260902225134 | 80 | 152 | 2.0 | 4.0 | 0.00 | 0.00 | 0.00 | ||
| 20260902224629 | 80 | 156 | 3.0 | 4.0 | 0.00 | 0.00 | 0.00 | ||
| 20260902224124 | 80 | 143 | 1.0 | 3.0 | 0.00 | 0.00 | 0.00 | ||
| 20260902223620 | 80 | 160 | 2.0 | 4.0 | 0.00 | 0.00 | 0.00 | ||
| 20260902223112 | 80 | 139 | 0.0 | 5.0 | 0.00 | 0.00 | 0.00 | ||
| 20260902222607 | 79 | 188 | 3.0 | 5.0 | 0.00 | 0.00 | 0.00 | ||
| 20260902222102 | 81 | 181 | 3.0 | 6.0 | 0.00 | 0.00 | 0.00 | ||
| 20260902221558 | 82 | 170 | 2.0 | 7.0 | 0.00 | 0.00 | 0.00 | ||
| 20260902221052 | 83 | 179 | 3.0 | 7.0 | 0.00 | 0.00 | 0.00 | ||
| 20260902220547 | 84 | 186 | 2.0 | 6.0 | 0.00 | 0.00 | 0.00 | ||
| 20260902220040 | 85 | 143 | 3.0 | 5.0 | 0.00 | 0.00 | 0.00 | ||
| 20260902215535 | 85 | 125 | 2.0 | 7.0 | 0.00 | 0.00 | 0.00 | ||
| 20260902215030 | 84 | 187 | 5.0 | 7.0 | 0.00 | 0.00 | 0.00 | ||
| 20260902214525 | 86 | 51 | 1.0 | 5.0 | 0.00 | 0.00 | 0.00 | ||
| 20260902214020 | 86 | 128 | 3.0 | 5.0 | 0.00 | 0.00 | 0.00 | ||
| 20260902213516 | 87 | 142 | 2.0 | 7.0 | 0.00 | 0.00 | 0.00 | ||
| 20260902212503 | 87 | 84 | 1.0 | 5.0 | 0.00 | 0.00 | 0.00 | ||
| 20260902211454 | 88 | 121 | 2.0 | 5.0 | 0.00 | 0.00 | 0.00 | ||
| 20260902210949 | 88 | 105 | 0.0 | 6.0 | 0.00 | 0.00 | 0.00 | ||
| 20260902210444 | 87 | 72 | 2.0 | 5.0 | 0.00 | 0.00 | 0.00 | ||
| 20260902205432 | 85 | 162 | 1.0 | 5.0 | 0.00 | 0.00 | 0.00 | ||
| 20260902204927 | 86 | 145 | 1.0 | 5.0 | 0.00 | 0.00 | 0.00 | ||
| 20260902204422 | 85 | 197 | 4.0 | 4.0 | 0.00 | 0.00 | 0.00 | ||
| 20260902203917 | 83 | 125 | 1.0 | 4.0 | 0.00 | 0.00 | 0.00 | ||
| 20260902203412 | 80 | 155 | 3.0 | 5.0 | 0.00 | 0.00 | 0.00 | ||
| 20260902202904 | 79 | 149 | 4.0 | 0.0 | 0.00 | 0.00 | 0.00 | ||
| 20260902202400 | 78 | 195 | 0.0 | 2.0 | 0.00 | 0.00 | 0.00 | ||
| 20260902201855 | 77 | 195 | 0.0 | 0.0 | 0.00 | 0.00 | 0.00 | ||
| 20260902201350 | 76 | 149 | 0.0 | 4.0 | 0.00 | 0.00 | 0.00 | ||
| 20260902200846 | 76 | 149 | 0.0 | 6.0 | 0.00 | 0.00 | 0.00 | ||
| 20260902200341 | 75 | 187 | 6.0 | 5.0 | 0.00 | 0.00 | 0.00 | ||
| 20260902195329 | 76 | 219 | 4.0 | 7.0 | 0.00 | 0.00 | 0.00 | ||
| 20260902194319 | 76 | 238 | 5.0 | 5.0 | 0.00 | 0.00 | 0.00 | ||
| 20260902193815 | 77 | 228 | 3.0 | 0.0 | 0.00 | 0.00 | 0.00 | ||
| 20260902193310 | 76 | 122 | 0.0 | 0.0 | 0.00 | 0.00 | 0.00 | ||
| 20260902192801 | 78 | 122 | 0.0 | 0.0 | 0.00 | 0.00 | 0.00 | ||
| 20260902192257 | 76 | 122 | 0.0 | 0.0 | 0.00 | 0.00 | 0.00 | ||
| 20260902191752 | 76 | 122 | 0.0 | 0.0 | 0.00 | 0.00 | 0.00 | ||
| 20260902191247 | 75 | 122 | 0.0 | 0.0 | 0.00 | 0.00 | 0.00 | ||
| 20260902190742 | 75 | 122 | 0.0 | 0.0 | 0.00 | 0.00 | 0.00 | ||
| 20260902190237 | 75 | 122 | 0.0 | 0.0 | 0.00 | 0.00 | 0.00 | ||
| 20260902185730 | 75 | 122 | 0.0 | 2.0 | 0.00 | 0.00 | 0.00 | ||
| 20260902185225 | 75 | 122 | 0.0 | 5.0 | 0.00 | 0.00 | 0.00 | ||
| 20260902184720 | 78 | 129 | 2.0 | 5.0 | 0.00 | 0.00 | 0.00 | ||
| 20260902184215 | 79 | 122 | 2.0 | 5.0 | 0.00 | 0.00 | 0.00 | ||
| 20260902183206 | 78 | 65 | 0.0 | 2.0 | 0.00 | 0.00 | 0.00 | ||
| 20260902182658 | 77 | 118 | 2.0 | 3.0 | 0.00 | 0.00 | 0.00 | ||
| 20260902182153 | 78 | 98 | 2.0 | 3.0 | 0.00 | 0.00 | 0.00 | ||
| 20260902181647 | 77 | 84 | 1.0 | 3.0 | 0.00 | 0.00 | 0.00 | ||
| 20260902181142 | 77 | 87 | 3.0 | 9.0 | 0.00 | 0.00 | 0.00 | ||
| 20260902180637 | 78 | 84 | 5.0 | 7.0 | 0.00 | 0.00 | 0.00 | ||
| 20260902180132 | 80 | 121 | 3.0 | 5.0 | 0.00 | 0.00 | 0.00 | ||
| 20260902175120 | 78 | 97 | 2.0 | 9.0 | 0.00 | 0.00 | 0.00 |